Time,TemperatureF,DewpointF,PressureIn,WindDirection,WindDirectionDegrees,WindSpeedMPH,WindSpeedGustMPH,Humidity,HourlyPrecipIn,Conditions,Clouds,dailyrainin,SoftwareType,DateUTC
2013-05-31 00:03:00,54.5,21.2,30.11,SW,218,0.0,0.0,27,0.00,,,0.00,VWS V14.01,2013-05-31 07:03:00,
2013-05-31 00:08:00,54.5,22.1,30.11,SW,218,0.0,0.0,28,0.00,,,0.00,VWS V14.01,2013-05-31 07:08:00,
2013-05-31 00:13:00,54.5,22.1,30.11,SW,218,0.0,0.0,28,0.00,,,0.00,VWS V14.01,2013-05-31 07:13:00,
2013-05-31 00:19:00,54.3,22.8,30.11,SW,218,0.0,0.0,29,0.00,,,0.00,VWS V14.01,2013-05-31 07:19:00,
2013-05-31 00:24:00,54.1,22.6,30.11,SW,218,0.0,0.0,29,0.00,,,0.00,VWS V14.01,2013-05-31 07:24:00,
2013-05-31 00:29:00,54.0,23.2,30.11,SW,218,0.0,0.0,30,0.00,,,0.00,VWS V14.01,2013-05-31 07:29:00,
2013-05-31 00:34:00,53.8,23.1,30.11,SW,218,0.0,0.0,30,0.00,,,0.00,VWS V14.01,2013-05-31 07:34:00,
2013-05-31 00:39:00,53.8,23.9,30.11,SW,218,0.0,0.0,31,0.00,,,0.00,VWS V14.01,2013-05-31 07:39:00,
2013-05-31 00:44:00,53.6,24.5,30.11,SW,218,0.0,0.0,32,0.00,,,0.00,VWS V14.01,2013-05-31 07:44:00,
2013-05-31 00:49:00,53.4,25.1,30.11,SW,218,0.0,0.0,33,0.00,,,0.00,VWS V14.01,2013-05-31 07:49:00,
2013-05-31 00:54:00,53.2,24.9,30.11,SW,218,0.0,0.0,33,0.00,,,0.00,VWS V14.01,2013-05-31 07:54:00,
2013-05-31 00:59:00,53.1,25.5,30.11,SW,218,0.0,0.0,34,0.00,,,0.00,VWS V14.01,2013-05-31 07:59:00,
2013-05-31 01:04:00,53.1,26.1,30.11,SW,218,0.0,0.0,35,0.00,,,0.00,VWS V14.01,2013-05-31 08:04:00,
2013-05-31 01:09:00,52.9,26.7,30.11,SW,218,0.0,0.0,36,0.00,,,0.00,VWS V14.01,2013-05-31 08:09:00,
2013-05-31 01:14:00,52.7,26.5,30.11,SW,218,0.0,0.0,36,0.00,,,0.00,VWS V14.01,2013-05-31 08:14:00,
2013-05-31 01:19:00,52.7,26.5,30.11,SW,218,0.0,0.0,36,0.00,,,0.00,VWS V14.01,2013-05-31 08:19:00,
2013-05-31 01:24:00,52.5,26.4,30.11,SW,218,0.0,0.0,36,0.00,,,0.00,VWS V14.01,2013-05-31 08:24:00,
2013-05-31 01:29:00,52.3,26.2,30.11,SW,218,0.0,0.0,36,0.00,,,0.00,VWS V14.01,2013-05-31 08:29:00,
2013-05-31 01:34:00,52.3,26.2,30.11,SW,218,0.0,0.0,36,0.00,,,0.00,VWS V14.01,2013-05-31 08:34:00,
2013-05-31 01:39:00,52.3,26.2,30.11,SW,218,0.0,0.0,36,0.00,,,0.00,VWS V14.01,2013-05-31 08:39:00,
2013-05-31 01:44:00,52.3,26.2,30.11,SW,218,0.0,0.0,36,0.00,,,0.00,VWS V14.01,2013-05-31 08:44:00,
2013-05-31 01:49:00,52.2,26.7,30.11,SW,218,0.0,0.0,37,0.00,,,0.00,VWS V14.01,2013-05-31 08:49:00,
2013-05-31 01:54:00,52.2,26.7,30.11,SW,218,0.0,0.0,37,0.00,,,0.00,VWS V14.01,2013-05-31 08:54:00,
2013-05-31 01:59:00,52.2,26.7,30.11,South,180,0.0,2.2,37,0.00,,,0.00,VWS V14.01,2013-05-31 08:59:00,
2013-05-31 02:04:00,52.2,26.7,30.11,South,179,0.0,0.0,37,0.00,,,0.00,VWS V14.01,2013-05-31 09:04:00,
2013-05-31 02:09:00,52.2,26.7,30.11,South,173,0.0,0.0,37,0.00,,,0.00,VWS V14.01,2013-05-31 09:09:00,
2013-05-31 02:14:00,52.2,26.7,30.11,SSE,162,0.0,0.0,37,0.00,,,0.00,VWS V14.01,2013-05-31 09:14:00,
2013-05-31 02:19:00,52.0,26.5,30.11,SSE,162,0.0,0.0,37,0.00,,,0.00,VWS V14.01,2013-05-31 09:19:00,
2013-05-31 02:24:00,52.0,27.2,30.11,SSE,161,0.0,0.0,38,0.00,,,0.00,VWS V14.01,2013-05-31 09:24:00,
2013-05-31 02:29:00,52.0,27.2,30.11,SSE,162,0.0,0.0,38,0.00,,,0.00,VWS V14.01,2013-05-31 09:29:00,
2013-05-31 02:34:00,52.0,27.2,30.11,SSE,162,0.0,0.0,38,0.00,,,0.00,VWS V14.01,2013-05-31 09:34:00,
2013-05-31 02:39:00,52.0,27.2,30.11,SSE,161,0.0,0.0,38,0.00,,,0.00,VWS V14.01,2013-05-31 09:39:00,
2013-05-31 02:44:00,52.0,27.8,30.11,SSE,161,0.0,0.0,39,0.00,,,0.00,VWS V14.01,2013-05-31 09:44:00,
2013-05-31 02:49:00,52.0,27.8,30.11,SSE,162,0.0,0.0,39,0.00,,,0.00,VWS V14.01,2013-05-31 09:49:00,
2013-05-31 02:54:00,52.0,27.8,30.11,SSE,161,0.0,0.0,39,0.00,,,0.00,VWS V14.01,2013-05-31 09:54:00,
2013-05-31 02:59:00,51.6,27.5,30.11,SSE,161,0.0,0.0,39,0.00,,,0.00,VWS V14.01,2013-05-31 09:59:00,
2013-05-31 03:04:00,51.6,27.5,30.11,SSE,162,0.0,0.0,39,0.00,,,0.00,VWS V14.01,2013-05-31 10:04:00,
2013-05-31 03:09:00,51.6,28.1,30.11,SSE,161,0.0,0.0,40,0.00,,,0.00,VWS V14.01,2013-05-31 10:09:00,
2013-05-31 03:14:00,51.6,28.1,30.11,SSE,161,0.0,0.0,40,0.00,,,0.00,VWS V14.01,2013-05-31 10:14:00,
2013-05-31 03:19:00,51.6,28.1,30.11,SSE,162,0.0,0.0,40,0.00,,,0.00,VWS V14.01,2013-05-31 10:19:00,
2013-05-31 03:24:00,51.6,28.1,30.11,SSE,162,0.0,0.0,40,0.00,,,0.00,VWS V14.01,2013-05-31 10:24:00,
2013-05-31 03:29:00,51.4,27.9,30.11,SSE,162,0.0,0.0,40,0.00,,,0.00,VWS V14.01,2013-05-31 10:29:00,
2013-05-31 03:34:00,51.3,27.8,30.11,SSE,162,0.0,0.0,40,0.00,,,0.00,VWS V14.01,2013-05-31 10:34:00,
2013-05-31 03:40:00,51.3,27.8,30.11,SSE,162,0.0,0.0,40,0.00,,,0.00,VWS V14.01,2013-05-31 10:40:00,
2013-05-31 03:45:00,51.1,27.6,30.11,SSE,162,0.0,0.0,40,0.00,,,0.00,VWS V14.01,2013-05-31 10:45:00,
2013-05-31 03:50:00,51.1,27.6,30.11,SSE,161,0.0,0.0,40,0.00,,,0.00,VWS V14.01,2013-05-31 10:50:00,
2013-05-31 03:55:00,51.1,28.2,30.11,SSE,161,0.0,0.0,41,0.00,,,0.00,VWS V14.01,2013-05-31 10:55:00,
2013-05-31 04:00:00,51.3,28.4,30.11,SSE,161,0.0,0.0,41,0.00,,,0.00,VWS V14.01,2013-05-31 11:00:00,
2013-05-31 04:05:00,51.3,29.0,30.11,SSE,161,0.0,0.0,42,0.00,,,0.00,VWS V14.01,2013-05-31 11:05:00,
2013-05-31 04:10:00,51.1,28.2,30.11,SSE,162,0.0,0.0,41,0.00,,,0.00,VWS V14.01,2013-05-31 11:10:00,
2013-05-31 04:15:00,51.1,28.8,30.11,SSE,162,0.0,0.0,42,0.00,,,0.00,VWS V14.01,2013-05-31 11:15:00,
2013-05-31 04:20:00,51.1,28.8,30.11,SSE,162,0.0,0.0,42,0.00,,,0.00,VWS V14.01,2013-05-31 11:20:00,
2013-05-31 04:25:00,51.3,28.4,30.11,SSE,161,0.0,0.0,41,0.00,,,0.00,VWS V14.01,2013-05-31 11:25:00,
2013-05-31 04:30:00,51.3,28.4,30.11,SSE,162,0.0,0.0,41,0.00,,,0.00,VWS V14.01,2013-05-31 11:30:00,
2013-05-31 04:35:00,51.3,28.4,30.11,SSE,161,0.0,0.0,41,0.00,,,0.00,VWS V14.01,2013-05-31 11:35:00,
2013-05-31 04:40:00,51.1,28.2,30.11,SSE,162,0.0,0.0,41,0.00,,,0.00,VWS V14.01,2013-05-31 11:40:00,
2013-05-31 04:45:00,51.3,28.4,30.11,SSE,161,0.0,0.0,41,0.00,,,0.00,VWS V14.01,2013-05-31 11:45:00,
2013-05-31 04:50:00,51.4,28.5,30.11,SSE,162,0.0,0.0,41,0.00,,,0.00,VWS V14.01,2013-05-31 11:50:00,
2013-05-31 04:55:00,51.8,28.3,30.11,SSE,162,0.0,0.0,40,0.00,,,0.00,VWS V14.01,2013-05-31 11:55:00,
2013-05-31 05:00:00,52.0,27.8,30.11,SSE,162,0.0,0.0,39,0.00,,,0.00,VWS V14.01,2013-05-31 12:00:00,
2013-05-31 05:05:00,52.0,27.8,30.11,SSE,161,0.0,0.0,39,0.00,,,0.00,VWS V14.01,2013-05-31 12:05:00,
2013-05-31 05:10:00,52.2,28.0,30.11,SSE,161,0.0,0.0,39,0.00,,,0.00,VWS V14.01,2013-05-31 12:10:00,
2013-05-31 05:15:00,52.3,27.5,30.11,SSE,162,0.0,0.0,38,0.00,,,0.00,VWS V14.01,2013-05-31 12:15:00,
2013-05-31 05:20:00,52.0,27.2,30.11,SSE,162,0.0,0.0,38,0.00,,,0.00,VWS V14.01,2013-05-31 12:20:00,
2013-05-31 05:25:00,51.6,26.9,30.11,SSE,162,0.0,0.0,38,0.00,,,0.00,VWS V14.01,2013-05-31 12:25:00,
2013-05-31 05:30:00,51.4,26.7,30.11,SSE,161,0.0,0.0,38,0.00,,,0.00,VWS V14.01,2013-05-31 12:30:00,
2013-05-31 05:35:00,51.3,26.5,30.11,SSE,162,0.0,0.0,38,0.00,,,0.00,VWS V14.01,2013-05-31 12:35:00,
2013-05-31 05:40:00,51.3,26.5,30.11,SSE,162,0.0,0.0,38,0.00,,,0.00,VWS V14.01,2013-05-31 12:40:00,
2013-05-31 05:46:00,51.1,26.4,30.11,SSE,162,0.0,0.0,38,0.00,,,0.00,VWS V14.01,2013-05-31 12:46:00,
2013-05-31 05:51:00,50.7,26.0,30.11,SSE,162,0.0,0.0,38,0.00,,,0.00,VWS V14.01,2013-05-31 12:51:00,
2013-05-31 05:56:00,50.7,26.0,30.11,SSE,162,0.0,0.0,38,0.00,,,0.00,VWS V14.01,2013-05-31 12:56:00,
2013-05-31 06:01:00,50.5,25.9,30.11,SSE,162,0.0,0.0,38,0.00,,,0.00,VWS V14.01,2013-05-31 13:01:00,
2013-05-31 06:06:00,50.7,26.7,30.11,SSE,162,0.0,0.0,39,0.00,,,0.00,VWS V14.01,2013-05-31 13:06:00,
2013-05-31 06:11:00,51.1,27.0,30.11,SSE,162,0.0,0.0,39,0.00,,,0.00,VWS V14.01,2013-05-31 13:11:00,
2013-05-31 06:16:00,51.6,27.5,30.11,SSE,162,0.0,0.0,39,0.00,,,0.00,VWS V14.01,2013-05-31 13:16:00,
2013-05-31 06:21:00,51.8,27.0,30.11,SSE,162,0.0,0.0,38,0.00,,,0.00,VWS V14.01,2013-05-31 13:21:00,
2013-05-31 06:26:00,51.8,27.0,30.11,SSE,162,0.0,0.0,38,0.00,,,0.00,VWS V14.01,2013-05-31 13:26:00,
2013-05-31 06:31:00,51.8,27.0,30.11,SSE,162,0.0,0.0,38,0.00,,,0.00,VWS V14.01,2013-05-31 13:31:00,
2013-05-31 06:36:00,51.6,26.9,30.11,SSE,161,0.0,0.0,38,0.00,,,0.00,VWS V14.01,2013-05-31 13:36:00,
2013-05-31 06:41:00,51.6,26.9,30.11,SSE,161,0.0,0.0,38,0.00,,,0.00,VWS V14.01,2013-05-31 13:41:00,
2013-05-31 06:46:00,51.4,26.7,30.11,SSE,161,0.0,0.0,38,0.00,,,0.00,VWS V14.01,2013-05-31 13:46:00,
2013-05-31 06:51:00,51.4,26.7,30.11,SSE,162,0.0,0.0,38,0.00,,,0.00,VWS V14.01,2013-05-31 13:51:00,
2013-05-31 06:56:00,51.4,26.7,30.11,SSE,161,0.0,0.0,38,0.00,,,0.00,VWS V14.01,2013-05-31 13:56:00,
2013-05-31 07:01:00,51.8,27.0,30.11,SSE,162,0.0,0.0,38,0.00,,,0.00,VWS V14.01,2013-05-31 14:01:00,
2013-05-31 07:06:00,52.3,27.5,30.11,SSE,162,0.0,0.0,38,0.00,,,0.00,VWS V14.01,2013-05-31 14:06:00,
2013-05-31 07:11:00,52.9,28.0,30.11,SSE,162,0.0,0.0,38,0.00,,,0.00,VWS V14.01,2013-05-31 14:11:00,
2013-05-31 07:16:00,53.4,28.5,30.11,SSE,162,0.0,0.0,38,0.00,,,0.00,VWS V14.01,2013-05-31 14:16:00,
2013-05-31 07:21:00,54.7,29.6,30.11,SSE,161,0.0,0.0,38,0.00,,,0.00,VWS V14.01,2013-05-31 14:21:00,
2013-05-31 07:26:00,56.1,30.2,30.11,SSE,162,0.0,0.0,37,0.00,,,0.00,VWS V14.01,2013-05-31 14:26:00,
2013-05-31 07:31:00,57.2,29.8,30.11,SSE,162,0.0,0.0,35,0.00,,,0.00,VWS V14.01,2013-05-31 14:31:00,
2013-05-31 07:36:00,57.9,30.5,30.11,SSE,161,0.0,0.0,35,0.00,,,0.00,VWS V14.01,2013-05-31 14:36:00,
2013-05-31 07:41:00,58.8,31.2,30.11,SSE,162,0.0,0.0,35,0.00,,,0.00,VWS V14.01,2013-05-31 14:41:00,
2013-05-31 07:46:00,59.5,31.2,30.11,SSE,161,0.0,0.0,34,0.00,,,0.00,VWS V14.01,2013-05-31 14:46:00,
2013-05-31 07:51:00,59.7,28.3,30.11,SSE,162,0.0,0.0,30,0.00,,,0.00,VWS V14.01,2013-05-31 14:51:00,
2013-05-31 07:56:00,59.7,26.6,30.11,SSE,161,0.0,0.0,28,0.00,,,0.00,VWS V14.01,2013-05-31 14:56:00,
2013-05-31 08:01:00,60.1,26.9,30.11,SSE,162,0.0,0.0,28,0.00,,,0.00,VWS V14.01,2013-05-31 15:01:00,
2013-05-31 08:06:00,59.9,25.9,30.11,SSE,161,0.0,0.0,27,0.00,,,0.00,VWS V14.01,2013-05-31 15:06:00,
2013-05-31 08:11:00,60.1,25.1,30.11,SSE,161,0.0,0.0,26,0.00,,,0.00,VWS V14.01,2013-05-31 15:11:00,
2013-05-31 08:16:00,60.1,25.1,30.11,SSE,161,0.0,0.0,26,0.00,,,0.00,VWS V14.01,2013-05-31 15:16:00,
2013-05-31 08:21:00,60.3,25.3,30.11,SSE,162,0.0,0.0,26,0.00,,,0.00,VWS V14.01,2013-05-31 15:21:00,
2013-05-31 08:26:00,60.4,24.5,30.11,SSE,162,0.0,0.0,25,0.00,,,0.00,VWS V14.01,2013-05-31 15:26:00,
2013-05-31 08:31:00,60.6,24.6,30.11,SSE,162,0.0,0.0,25,0.00,,,0.00,VWS V14.01,2013-05-31 15:31:00,
2013-05-31 08:36:00,60.8,23.8,30.11,SSE,161,2.2,2.2,24,0.00,,,0.00,VWS V14.01,2013-05-31 15:36:00,
2013-05-31 08:41:00,61.2,24.1,30.11,SW,215,0.0,0.0,24,0.00,,,0.00,VWS V14.01,2013-05-31 15:41:00,
2013-05-31 08:46:00,61.7,24.6,30.11,South,191,0.0,0.0,24,0.00,,,0.00,VWS V14.01,2013-05-31 15:46:00,
2013-05-31 08:52:00,62.4,22.0,30.11,South,186,2.2,2.7,21,0.00,,,0.00,VWS V14.01,2013-05-31 15:52:00,
2013-05-31 08:57:00,62.6,18.5,30.11,SW,229,2.7,2.7,18,0.00,,,0.00,VWS V14.01,2013-05-31 15:57:00,
2013-05-31 09:02:00,62.8,18.7,30.11,WSW,250,3.1,3.1,18,0.00,,,0.00,VWS V14.01,2013-05-31 16:02:00,
2013-05-31 09:07:00,63.0,16.1,30.11,SW,218,2.7,2.7,16,0.00,,,0.00,VWS V14.01,2013-05-31 16:07:00,
2013-05-31 09:12:00,63.1,16.2,30.11,SW,219,3.1,3.1,16,0.00,,,0.00,VWS V14.01,2013-05-31 16:12:00,
2013-05-31 09:17:00,63.5,16.5,30.11,SE,137,0.0,0.0,16,0.00,,,0.00,VWS V14.01,2013-05-31 16:17:00,
2013-05-31 09:22:00,63.9,16.8,30.11,South,170,2.2,3.1,16,0.00,,,0.00,VWS V14.01,2013-05-31 16:22:00,
2013-05-31 09:27:00,64.4,15.8,30.11,South,170,2.7,2.7,15,0.00,,,0.00,VWS V14.01,2013-05-31 16:27:00,
2013-05-31 09:32:00,64.9,16.2,30.11,SW,223,2.7,3.1,15,0.00,,,0.00,VWS V14.01,2013-05-31 16:32:00,
2013-05-31 09:37:00,65.3,16.5,30.11,SSW,209,2.7,2.7,15,0.00,,,0.00,VWS V14.01,2013-05-31 16:37:00,
2013-05-31 09:42:00,65.5,16.6,30.11,West,269,3.1,3.1,15,0.00,,,0.00,VWS V14.01,2013-05-31 16:42:00,
2013-05-31 09:47:00,66.0,17.1,30.11,WNW,294,3.1,3.1,15,0.00,,,0.00,VWS V14.01,2013-05-31 16:47:00,
2013-05-31 09:52:00,66.4,12.3,30.11,SW,220,3.6,4.9,12,0.00,,,0.00,VWS V14.01,2013-05-31 16:52:00,
2013-05-31 09:57:00,66.4,12.3,30.11,SW,217,3.1,3.1,12,0.00,,,0.00,VWS V14.01,2013-05-31 16:57:00,
2013-05-31 10:02:00,66.6,12.4,30.11,SW,230,4.0,4.0,12,0.00,,,0.00,VWS V14.01,2013-05-31 17:02:00,
2013-05-31 10:07:00,66.9,12.7,30.11,SE,130,0.0,3.1,12,0.00,,,0.00,VWS V14.01,2013-05-31 17:07:00,
2013-05-31 10:12:00,67.1,12.8,30.11,WSW,239,2.7,2.7,12,0.00,,,0.00,VWS V14.01,2013-05-31 17:12:00,
2013-05-31 10:17:00,67.3,13.0,30.11,SSW,209,2.2,2.2,12,0.00,,,0.00,VWS V14.01,2013-05-31 17:17:00,
2013-05-31 10:22:00,67.5,13.1,30.11,SSW,205,2.2,2.7,12,0.00,,,0.00,VWS V14.01,2013-05-31 17:22:00,
2013-05-31 10:27:00,68.0,13.5,30.11,South,177,3.1,3.1,12,0.00,,,0.00,VWS V14.01,2013-05-31 17:27:00,
2013-05-31 10:32:00,68.4,13.8,30.11,SSW,201,4.0,4.0,12,0.00,,,0.00,VWS V14.01,2013-05-31 17:32:00,
2013-05-31 10:37:00,68.4,13.8,30.11,SSW,206,4.0,4.0,12,0.00,,,0.00,VWS V14.01,2013-05-31 17:37:00,
2013-05-31 10:42:00,68.5,13.9,30.11,SW,231,2.7,3.1,12,0.00,,,0.00,VWS V14.01,2013-05-31 17:42:00,
2013-05-31 10:47:00,69.1,14.4,30.11,SSW,208,0.0,0.0,12,0.00,,,0.00,VWS V14.01,2013-05-31 17:47:00,
2013-05-31 10:52:00,69.6,14.8,30.11,SSE,161,2.2,2.2,12,0.00,,,0.00,VWS V14.01,2013-05-31 17:52:00,
2013-05-31 10:57:00,70.2,15.2,30.11,SW,223,2.7,3.1,12,0.00,,,0.00,VWS V14.01,2013-05-31 17:57:00,
2013-05-31 11:02:00,70.5,15.5,30.11,SE,136,0.0,3.1,12,0.00,,,0.00,VWS V14.01,2013-05-31 18:02:00,
2013-05-31 11:07:00,70.3,15.4,30.11,SSW,192,3.6,4.0,12,0.00,,,0.00,VWS V14.01,2013-05-31 18:07:00,
2013-05-31 11:12:00,70.7,15.6,30.11,SW,230,3.6,3.6,12,0.00,,,0.00,VWS V14.01,2013-05-31 18:12:00,
2013-05-31 11:17:00,71.4,16.2,30.11,South,171,0.0,2.7,12,0.00,,,0.00,VWS V14.01,2013-05-31 18:17:00,
2013-05-31 11:22:00,72.3,14.9,30.11,SW,228,3.1,3.1,11,0.00,,,0.00,VWS V14.01,2013-05-31 18:22:00,
2013-05-31 11:27:00,72.9,15.3,30.11,SSE,168,3.1,3.6,11,0.00,,,0.00,VWS V14.01,2013-05-31 18:27:00,
2013-05-31 11:32:00,72.9,10.8,30.11,SSW,195,3.1,3.1,9,0.00,,,0.00,VWS V14.01,2013-05-31 18:32:00,
2013-05-31 11:37:00,73.0,10.9,30.11,SW,233,3.6,3.6,9,0.00,,,0.00,VWS V14.01,2013-05-31 18:37:00,
2013-05-31 11:42:00,73.6,8.7,30.11,SSW,212,5.4,5.4,8,0.00,,,0.00,VWS V14.01,2013-05-31 18:42:00,
2013-05-31 11:47:00,73.9,9.0,30.11,WSW,254,3.1,5.8,8,0.00,,,0.00,VWS V14.01,2013-05-31 18:47:00,
2013-05-31 11:53:00,73.6,8.7,30.11,SW,221,3.1,3.1,8,0.00,,,0.00,VWS V14.01,2013-05-31 18:53:00,
2013-05-31 11:58:00,73.9,9.0,30.11,SW,220,4.0,4.0,8,0.00,,,0.00,VWS V14.01,2013-05-31 18:58:00,
2013-05-31 12:03:00,74.1,9.1,30.11,West,276,3.6,4.0,8,0.00,,,0.00,VWS V14.01,2013-05-31 19:03:00,
2013-05-31 12:08:00,74.3,9.2,30.11,SW,221,3.1,4.9,8,0.00,,,0.00,VWS V14.01,2013-05-31 19:08:00,
2013-05-31 12:13:00,74.8,9.6,30.11,South,177,4.9,4.9,8,0.00,,,0.00,VWS V14.01,2013-05-31 19:13:00,
2013-05-31 12:18:00,75.2,9.9,30.11,WSW,255,5.4,5.4,8,0.00,,,0.00,VWS V14.01,2013-05-31 19:18:00,
2013-05-31 12:23:00,75.6,10.2,30.11,SSW,206,3.1,3.1,8,0.00,,,0.00,VWS V14.01,2013-05-31 19:23:00,
2013-05-31 12:28:00,75.9,10.4,30.11,SSE,151,2.7,4.0,8,0.00,,,0.00,VWS V14.01,2013-05-31 19:28:00,
2013-05-31 12:33:00,76.3,10.7,30.11,West,273,3.6,3.6,8,0.00,,,0.00,VWS V14.01,2013-05-31 19:33:00,
2013-05-31 12:38:00,75.6,10.2,30.11,SW,214,3.1,3.6,8,0.00,,,0.00,VWS V14.01,2013-05-31 19:38:00,
2013-05-31 12:43:00,74.8,9.6,30.11,South,181,3.6,3.6,8,0.00,,,0.00,VWS V14.01,2013-05-31 19:43:00,
2013-05-31 12:48:00,74.3,9.2,30.11,SW,220,4.0,4.5,8,0.00,,,0.00,VWS V14.01,2013-05-31 19:48:00,
2013-05-31 12:53:00,73.9,9.0,30.11,West,261,6.3,6.3,8,0.00,,,0.00,VWS V14.01,2013-05-31 19:53:00,
2013-05-31 12:58:00,73.0,10.9,30.11,SW,216,4.0,5.8,9,0.00,,,0.00,VWS V14.01,2013-05-31 19:58:00,
2013-05-31 13:03:00,72.5,10.5,30.11,SW,229,3.6,5.4,9,0.00,,,0.00,VWS V14.01,2013-05-31 20:03:00,
2013-05-31 13:08:00,72.7,10.6,30.11,SW,221,4.0,6.3,9,0.00,,,0.00,VWS V14.01,2013-05-31 20:08:00,
2013-05-31 13:13:00,72.1,10.2,30.11,SW,226,5.4,5.4,9,0.00,,,0.00,VWS V14.01,2013-05-31 20:13:00,
2013-05-31 13:18:00,72.5,10.5,30.11,SSW,213,4.5,4.5,9,0.00,,,0.00,VWS V14.01,2013-05-31 20:18:00,
2013-05-31 13:23:00,72.7,10.6,30.11,South,191,4.0,4.9,9,0.00,,,0.00,VWS V14.01,2013-05-31 20:23:00,
2013-05-31 13:28:00,72.9,10.8,30.11,SW,218,3.6,5.8,9,0.00,,,0.00,VWS V14.01,2013-05-31 20:28:00,
2013-05-31 13:33:00,73.2,11.1,30.11,SW,222,3.1,4.9,9,0.00,,,0.00,VWS V14.01,2013-05-31 20:33:00,
2013-05-31 13:38:00,73.6,8.7,30.11,WSW,257,3.1,4.0,8,0.00,,,0.00,VWS V14.01,2013-05-31 20:38:00,
2013-05-31 13:43:00,73.9,9.0,30.11,SSW,203,4.0,4.0,8,0.00,,,0.00,VWS V14.01,2013-05-31 20:43:00,
2013-05-31 13:48:00,74.5,9.4,30.11,SW,228,3.6,3.6,8,0.00,,,0.00,VWS V14.01,2013-05-31 20:48:00,
2013-05-31 13:53:00,74.7,9.5,30.11,WSW,243,3.1,5.4,8,0.00,,,0.00,VWS V14.01,2013-05-31 20:53:00,
2013-05-31 13:58:00,74.5,9.4,30.11,SW,227,4.0,4.0,8,0.00,,,0.00,VWS V14.01,2013-05-31 20:58:00,
2013-05-31 14:03:00,73.9,9.0,30.11,SW,225,4.0,6.3,8,0.00,,,0.00,VWS V14.01,2013-05-31 21:03:00,
2013-05-31 14:08:00,73.4,8.6,30.11,SSW,200,3.6,5.4,8,0.00,,,0.00,VWS V14.01,2013-05-31 21:08:00,
2013-05-31 14:13:00,73.0,10.9,30.11,SW,227,3.6,3.6,9,0.00,,,0.00,VWS V14.01,2013-05-31 21:13:00,
2013-05-31 14:18:00,72.9,10.8,30.11,South,190,4.9,4.9,9,0.00,,,0.00,VWS V14.01,2013-05-31 21:18:00,
2013-05-31 14:23:00,73.0,10.9,30.11,SSE,160,3.1,3.1,9,0.00,,,0.00,VWS V14.01,2013-05-31 21:23:00,
2013-05-31 14:28:00,73.8,8.8,30.11,SSW,211,3.1,7.6,8,0.00,,,0.00,VWS V14.01,2013-05-31 21:28:00,
2013-05-31 14:33:00,74.1,9.1,30.11,East,93,3.6,3.6,8,0.00,,,0.00,VWS V14.01,2013-05-31 21:33:00,
2013-05-31 14:38:00,74.8,9.6,30.11,SW,229,4.9,6.3,8,0.00,,,0.00,VWS V14.01,2013-05-31 21:38:00,
2013-05-31 14:43:00,75.2,9.9,30.11,South,183,3.1,4.0,8,0.00,,,0.00,VWS V14.01,2013-05-31 21:43:00,
2013-05-31 14:48:00,76.3,10.7,30.11,SW,229,4.0,4.0,8,0.00,,,0.00,VWS V14.01,2013-05-31 21:48:00,
2013-05-31 14:53:00,76.6,11.0,30.11,SW,223,4.0,4.9,8,0.00,,,0.00,VWS V14.01,2013-05-31 21:53:00,
2013-05-31 14:58:00,76.8,11.1,30.11,SW,214,2.7,4.0,8,0.00,,,0.00,VWS V14.01,2013-05-31 21:58:00,
2013-05-31 15:03:00,76.8,11.1,30.11,SE,144,3.6,6.3,8,0.00,,,0.00,VWS V14.01,2013-05-31 22:03:00,
2013-05-31 15:08:00,77.2,11.4,30.11,SSW,206,5.4,6.3,8,0.00,,,0.00,VWS V14.01,2013-05-31 22:08:00,
2013-05-31 15:13:00,77.0,11.2,30.11,South,188,4.9,4.9,8,0.00,,,0.00,VWS V14.01,2013-05-31 22:13:00,
2013-05-31 15:18:00,77.9,11.9,30.11,SW,216,3.6,5.8,8,0.00,,,0.00,VWS V14.01,2013-05-31 22:18:00,
2013-05-31 15:23:00,78.1,12.0,30.11,SW,228,2.7,4.0,8,0.00,,,0.00,VWS V14.01,2013-05-31 22:23:00,
2013-05-31 15:29:00,78.1,12.0,30.11,WSW,241,4.0,5.8,8,0.00,,,0.00,VWS V14.01,2013-05-31 22:29:00,
2013-05-31 15:34:00,78.4,12.3,30.11,WSW,237,4.0,4.0,8,0.00,,,0.00,VWS V14.01,2013-05-31 22:34:00,
2013-05-31 15:39:00,78.3,12.2,30.11,WSW,251,4.0,5.8,8,0.00,,,0.00,VWS V14.01,2013-05-31 22:39:00,
2013-05-31 15:44:00,77.9,11.9,30.11,SSW,204,5.4,5.8,8,0.00,,,0.00,VWS V14.01,2013-05-31 22:44:00,
2013-05-31 15:49:00,77.5,11.6,30.11,SE,138,3.6,3.6,8,0.00,,,0.00,VWS V14.01,2013-05-31 22:49:00,
2013-05-31 15:54:00,77.5,11.6,30.11,SSE,168,3.6,5.4,8,0.00,,,0.00,VWS V14.01,2013-05-31 22:54:00,
2013-05-31 15:59:00,77.5,11.6,30.11,SSW,207,3.1,3.1,8,0.00,,,0.00,VWS V14.01,2013-05-31 22:59:00,
2013-05-31 16:04:00,77.5,11.6,30.11,SSW,213,2.7,4.0,8,0.00,,,0.00,VWS V14.01,2013-05-31 23:04:00,
2013-05-31 16:09:00,77.9,11.9,30.11,SSW,202,3.6,4.0,8,0.00,,,0.00,VWS V14.01,2013-05-31 23:09:00,
2013-05-31 16:14:00,78.3,12.2,30.11,WSW,239,2.7,2.7,8,0.00,,,0.00,VWS V14.01,2013-05-31 23:14:00,
2013-05-31 16:19:00,78.6,12.4,30.11,SW,215,3.1,4.9,8,0.00,,,0.00,VWS V14.01,2013-05-31 23:19:00,
2013-05-31 16:24:00,78.6,12.4,30.11,SSW,212,3.1,4.9,8,0.00,,,0.00,VWS V14.01,2013-05-31 23:24:00,
2013-05-31 16:29:00,78.6,12.4,30.11,SSW,212,4.0,4.0,8,0.00,,,0.00,VWS V14.01,2013-05-31 23:29:00,
2013-05-31 16:34:00,78.1,12.0,30.11,South,185,5.4,5.4,8,0.00,,,0.00,VWS V14.01,2013-05-31 23:34:00,
2013-05-31 16:39:00,76.3,10.7,30.11,SSW,205,4.9,6.3,8,0.00,,,0.00,VWS V14.01,2013-05-31 23:39:00,
2013-05-31 16:44:00,74.7,9.5,30.11,SW,217,3.6,3.6,8,0.00,,,0.00,VWS V14.01,2013-05-31 23:44:00,
2013-05-31 16:49:00,73.8,8.8,30.11,SSW,212,3.6,4.0,8,0.00,,,0.00,VWS V14.01,2013-05-31 23:49:00,
2013-05-31 16:54:00,73.6,8.7,30.11,SW,235,3.6,3.6,8,0.00,,,0.00,VWS V14.01,2013-05-31 23:54:00,
2013-05-31 16:59:00,73.8,8.8,30.11,SSW,208,2.2,3.1,8,0.00,,,0.00,VWS V14.01,2013-05-31 23:59:00,
2013-05-31 17:04:00,74.7,9.5,30.11,SSW,211,3.6,3.6,8,0.00,,,0.00,VWS V14.01,2013-06-01 00:04:00,
2013-05-31 17:09:00,75.7,10.3,30.11,SSW,205,2.7,4.9,8,0.00,,,0.00,VWS V14.01,2013-06-01 00:09:00,
2013-05-31 17:14:00,76.3,10.7,30.11,SW,228,4.0,4.0,8,0.00,,,0.00,VWS V14.01,2013-06-01 00:14:00,
2013-05-31 17:19:00,76.6,11.0,30.11,SSW,197,3.1,4.0,8,0.00,,,0.00,VWS V14.01,2013-06-01 00:19:00,
2013-05-31 17:24:00,76.8,11.1,30.11,SSW,197,4.0,4.0,8,0.00,,,0.00,VWS V14.01,2013-06-01 00:24:00,
2013-05-31 17:29:00,77.5,11.6,30.11,SSW,196,4.9,4.9,8,0.00,,,0.00,VWS V14.01,2013-06-01 00:29:00,
2013-05-31 17:34:00,77.4,11.5,30.11,SSW,197,2.2,3.1,8,0.00,,,0.00,VWS V14.01,2013-06-01 00:34:00,
2013-05-31 17:39:00,76.8,11.1,30.11,SW,233,3.6,4.9,8,0.00,,,0.00,VWS V14.01,2013-06-01 00:39:00,
2013-05-31 17:44:00,76.5,10.8,30.11,SSW,206,2.7,4.0,8,0.00,,,0.00,VWS V14.01,2013-06-01 00:44:00,
2013-05-31 17:49:00,76.5,10.8,30.11,SSW,205,2.7,3.1,8,0.00,,,0.00,VWS V14.01,2013-06-01 00:49:00,
2013-05-31 17:54:00,76.8,11.1,30.11,SSW,212,0.0,2.2,8,0.00,,,0.00,VWS V14.01,2013-06-01 00:54:00,
2013-05-31 17:59:00,77.0,11.2,30.11,SW,233,4.0,4.0,8,0.00,,,0.00,VWS V14.01,2013-06-01 00:59:00,
2013-05-31 18:04:00,77.2,11.4,30.11,SW,220,4.0,4.0,8,0.00,,,0.00,VWS V14.01,2013-06-01 01:04:00,
2013-05-31 18:09:00,76.6,11.0,30.11,South,189,2.7,2.7,8,0.00,,,0.00,VWS V14.01,2013-06-01 01:09:00,
2013-05-31 18:15:00,76.6,11.0,30.11,South,190,3.1,3.1,8,0.00,,,0.00,VWS V14.01,2013-06-01 01:15:00,
2013-05-31 18:19:00,76.1,10.6,30.11,South,182,2.2,3.1,8,0.00,,,0.00,VWS V14.01,2013-06-01 01:19:00,
2013-05-31 18:25:00,75.9,10.4,30.11,South,172,3.6,4.5,8,0.00,,,0.00,VWS V14.01,2013-06-01 01:25:00,
2013-05-31 18:30:00,75.0,9.8,30.11,SW,231,2.7,3.6,8,0.00,,,0.00,VWS V14.01,2013-06-01 01:30:00,
2013-05-31 18:35:00,74.1,9.1,30.11,WSW,239,2.2,4.0,8,0.00,,,0.00,VWS V14.01,2013-06-01 01:35:00,
2013-05-31 18:40:00,73.2,11.1,30.11,SW,231,3.1,3.6,9,0.00,,,0.00,VWS V14.01,2013-06-01 01:40:00,
2013-05-31 18:45:00,72.9,10.8,30.11,SSW,199,3.1,3.1,9,0.00,,,0.00,VWS V14.01,2013-06-01 01:45:00,
2013-05-31 18:50:00,72.3,10.4,30.11,South,172,0.0,2.2,9,0.00,,,0.00,VWS V14.01,2013-06-01 01:50:00,
2013-05-31 18:55:00,72.3,10.4,30.11,South,174,0.0,3.1,9,0.00,,,0.00,VWS V14.01,2013-06-01 01:55:00,
2013-05-31 19:00:00,72.3,10.4,30.11,WSW,244,2.7,3.6,9,0.00,,,0.00,VWS V14.01,2013-06-01 02:00:00,
2013-05-31 19:05:00,72.5,10.5,30.11,SW,236,3.6,3.6,9,0.00,,,0.00,VWS V14.01,2013-06-01 02:05:00,
2013-05-31 19:10:00,72.5,10.5,30.11,SW,235,0.0,0.0,9,0.00,,,0.00,VWS V14.01,2013-06-01 02:10:00,
2013-05-31 19:15:00,72.5,10.5,30.11,SSW,204,0.0,3.1,9,0.00,,,0.00,VWS V14.01,2013-06-01 02:15:00,
2013-05-31 19:20:00,72.3,10.4,30.11,SW,230,0.0,0.0,9,0.00,,,0.00,VWS V14.01,2013-06-01 02:20:00,
2013-05-31 19:25:00,72.0,10.1,30.11,ESE,112,0.0,0.0,9,0.00,,,0.00,VWS V14.01,2013-06-01 02:25:00,
2013-05-31 19:30:00,72.0,10.1,30.11,South,179,0.0,0.0,9,0.00,,,0.00,VWS V14.01,2013-06-01 02:30:00,
2013-05-31 19:35:00,72.3,10.4,30.11,South,179,0.0,0.0,9,0.00,,,0.00,VWS V14.01,2013-06-01 02:35:00,
2013-05-31 19:40:00,72.7,10.6,30.11,South,179,0.0,0.0,9,0.00,,,0.00,VWS V14.01,2013-06-01 02:40:00,
2013-05-31 19:45:00,73.2,11.1,30.11,South,180,0.0,0.0,9,0.00,,,0.00,VWS V14.01,2013-06-01 02:45:00,
2013-05-31 19:50:00,73.8,8.8,30.11,NW,310,0.0,0.0,8,0.00,,,0.00,VWS V14.01,2013-06-01 02:50:00,
2013-05-31 19:55:00,73.9,9.0,30.11,NW,310,0.0,0.0,8,0.00,,,0.00,VWS V14.01,2013-06-01 02:55:00,
2013-05-31 20:00:00,73.8,8.8,30.11,NW,310,0.0,0.0,8,0.00,,,0.00,VWS V14.01,2013-06-01 03:00:00,
2013-05-31 20:05:00,73.4,8.6,30.11,NW,310,0.0,0.0,8,0.00,,,0.00,VWS V14.01,2013-06-01 03:05:00,
2013-05-31 20:10:00,73.2,11.1,30.11,SSW,203,2.7,2.7,9,0.00,,,0.00,VWS V14.01,2013-06-01 03:10:00,
2013-05-31 20:15:00,72.9,10.8,30.11,West,262,0.0,0.0,9,0.00,,,0.00,VWS V14.01,2013-06-01 03:15:00,
2013-05-31 20:20:00,72.3,10.4,30.11,West,262,0.0,0.0,9,0.00,,,0.00,VWS V14.01,2013-06-01 03:20:00,
2013-05-31 20:25:00,71.8,10.0,30.11,SSW,200,0.0,0.0,9,0.00,,,0.00,VWS V14.01,2013-06-01 03:25:00,
2013-05-31 20:30:00,70.3,8.9,30.11,South,174,0.0,0.0,9,0.00,,,0.00,VWS V14.01,2013-06-01 03:30:00,
2013-05-31 20:35:00,68.9,10.1,30.11,SSW,199,0.0,0.0,10,0.00,,,0.00,VWS V14.01,2013-06-01 03:35:00,
2013-05-31 20:40:00,67.5,9.0,30.11,SSW,199,0.0,0.0,10,0.00,,,0.00,VWS V14.01,2013-06-01 03:40:00,
2013-05-31 20:45:00,66.4,8.2,30.11,SSW,199,0.0,0.0,10,0.00,,,0.00,VWS V14.01,2013-06-01 03:45:00,
2013-05-31 20:50:00,65.3,7.4,30.11,ESE,102,2.2,3.1,10,0.00,,,0.00,VWS V14.01,2013-06-01 03:50:00,
2013-05-31 20:55:00,64.2,8.6,30.11,NNE,14,0.0,0.0,11,0.00,,,0.00,VWS V14.01,2013-06-01 03:55:00,
2013-05-31 21:00:00,63.7,11.9,30.11,ESE,111,0.0,0.0,13,0.00,,,0.00,VWS V14.01,2013-06-01 04:00:00,
2013-05-31 21:01:00,63.7,11.9,30.11,SSE,151,2.2,2.2,13,0.00,,,0.00,VWS V14.01,2013-06-01 04:01:00,
2013-05-31 21:02:00,63.7,11.9,30.11,SSE,151,0.0,2.2,13,0.00,,,0.00,VWS V14.01,2013-06-01 04:02:00,
2013-05-31 21:07:00,63.5,11.8,30.11,SW,225,0.0,2.2,13,0.00,,,0.00,VWS V14.01,2013-06-01 04:07:00,
2013-05-31 21:12:00,63.1,11.5,30.11,SW,228,0.0,0.0,13,0.00,,,0.00,VWS V14.01,2013-06-01 04:12:00,
2013-05-31 21:17:00,62.8,11.2,30.11,SSW,207,0.0,0.0,13,0.00,,,0.00,VWS V14.01,2013-06-01 04:17:00,
2013-05-31 21:22:00,62.2,12.5,30.11,SSW,204,0.0,0.0,14,0.00,,,0.00,VWS V14.01,2013-06-01 04:22:00,
2013-05-31 21:27:00,61.7,12.1,30.11,SW,216,0.0,0.0,14,0.00,,,0.00,VWS V14.01,2013-06-01 04:27:00,
2013-05-31 21:32:00,61.0,11.5,30.11,SW,216,0.0,0.0,14,0.00,,,0.00,VWS V14.01,2013-06-01 04:32:00,
2013-05-31 21:37:00,61.0,14.5,30.11,SW,216,0.0,0.0,16,0.00,,,0.00,VWS V14.01,2013-06-01 04:37:00,
2013-05-31 21:42:00,61.3,14.8,30.11,SW,216,0.0,0.0,16,0.00,,,0.00,VWS V14.01,2013-06-01 04:42:00,
2013-05-31 21:47:00,62.1,15.4,30.11,South,175,0.0,0.0,16,0.00,,,0.00,VWS V14.01,2013-06-01 04:47:00,
2013-05-31 21:52:00,62.1,15.4,30.11,South,175,0.0,0.0,16,0.00,,,0.00,VWS V14.01,2013-06-01 04:52:00,
2013-05-31 21:57:00,61.9,15.2,30.11,SSW,198,0.0,0.0,16,0.00,,,0.00,VWS V14.01,2013-06-01 04:57:00,
2013-05-31 22:02:00,61.5,14.9,30.11,SSW,198,0.0,0.0,16,0.00,,,0.00,VWS V14.01,2013-06-01 05:02:00,
2013-05-31 22:07:00,61.2,14.6,30.11,SSW,198,0.0,0.0,16,0.00,,,0.00,VWS V14.01,2013-06-01 05:07:00,
2013-05-31 22:12:00,60.8,14.4,30.11,SSW,194,2.2,2.2,16,0.00,,,0.00,VWS V14.01,2013-06-01 05:12:00,
2013-05-31 22:17:00,60.6,15.6,30.11,SSE,165,0.0,0.0,17,0.00,,,0.00,VWS V14.01,2013-06-01 05:17:00,
2013-05-31 22:22:00,60.3,17.9,30.11,South,174,0.0,0.0,19,0.00,,,0.00,VWS V14.01,2013-06-01 05:22:00,
2013-05-31 22:27:00,60.1,17.7,30.11,ESE,123,0.0,0.0,19,0.00,,,0.00,VWS V14.01,2013-06-01 05:27:00,
2013-05-31 22:32:00,59.9,17.6,30.11,ESE,123,0.0,0.0,19,0.00,,,0.00,VWS V14.01,2013-06-01 05:32:00,
2013-05-31 22:37:00,59.7,17.4,30.11,SE,146,0.0,0.0,19,0.00,,,0.00,VWS V14.01,2013-06-01 05:37:00,
2013-05-31 22:42:00,59.4,17.1,30.11,SSW,197,0.0,0.0,19,0.00,,,0.00,VWS V14.01,2013-06-01 05:42:00,
2013-05-31 22:47:00,59.2,20.4,30.11,South,180,0.0,0.0,22,0.00,,,0.00,VWS V14.01,2013-06-01 05:47:00,
2013-05-31 22:52:00,59.2,20.4,30.11,South,182,0.0,0.0,22,0.00,,,0.00,VWS V14.01,2013-06-01 05:52:00,
2013-05-31 22:57:00,59.0,20.2,30.11,South,190,0.0,0.0,22,0.00,,,0.00,VWS V14.01,2013-06-01 05:57:00,
2013-05-31 23:02:00,59.0,22.3,30.11,South,187,0.0,2.2,24,0.00,,,0.00,VWS V14.01,2013-06-01 06:02:00,
2013-05-31 23:07:00,58.8,22.1,30.11,South,187,0.0,0.0,24,0.00,,,0.00,VWS V14.01,2013-06-01 06:07:00,
2013-05-31 23:12:00,58.6,22.9,30.11,SSE,166,2.2,3.1,25,0.00,,,0.00,VWS V14.01,2013-06-01 06:12:00,
2013-05-31 23:17:00,58.5,22.8,30.11,ESE,122,0.0,0.0,25,0.00,,,0.00,VWS V14.01,2013-06-01 06:17:00,
2013-05-31 23:22:00,58.5,22.8,30.11,SE,124,0.0,0.0,25,0.00,,,0.00,VWS V14.01,2013-06-01 06:22:00,
2013-05-31 23:27:00,58.5,22.8,30.11,SE,124,0.0,0.0,25,0.00,,,0.00,VWS V14.01,2013-06-01 06:27:00,
2013-05-31 23:32:00,58.3,22.6,30.11,SE,124,0.0,0.0,25,0.00,,,0.00,VWS V14.01,2013-06-01 06:32:00,
2013-05-31 23:38:00,58.1,22.5,30.11,SE,124,0.0,0.0,25,0.00,,,0.00,VWS V14.01,2013-06-01 06:38:00,
2013-05-31 23:43:00,58.1,23.4,30.11,SE,124,0.0,0.0,26,0.00,,,0.00,VWS V14.01,2013-06-01 06:43:00,
2013-05-31 23:48:00,57.9,23.3,30.11,SE,146,0.0,0.0,26,0.00,,,0.00,VWS V14.01,2013-06-01 06:48:00,
2013-05-31 23:53:00,57.7,23.1,30.11,SE,146,0.0,0.0,26,0.00,,,0.00,VWS V14.01,2013-06-01 06:53:00,
2013-05-31 23:58:00,57.6,23.9,30.11,North,8,0.0,0.0,27,0.00,,,0.00,VWS V14.01,2013-06-01 06:58:00,